Home   Weather   Naples   Past weeks

Flag for Italy Past Weather in Naples, Italy — Yesterday and Last 2 Weeks

70 °F

Passing clouds.

Feels Like: 70 °F
Forecast: 59 / 69 °F
Wind: 2 mph from North

Location: Naples / Capodichino

Current Time: Oct 26, 2016 at 11:36:09 PM

Latest Report: Oct 26, 2016 at 10:50 PM

Visibility: N/A

Pressure: 30.07 "Hg

Humidity: 83%

Dew Point: 64 °F

Location of NaplesLocation

Past Weather in Naples — Graph


Naples Temperature Yesterday

Maximum temperature yesterday: 79 °F (at 12:20 PM)
Minimum temperature yesterday: 59 °F (at 4:20 AM)
Average temperature yesterday: 69 °F

High & Low Weather Summary for the Past Weeks

High84 °F (Oct 14, 4:20 PM)94% (Oct 12, 7:20 AM)30.24 "Hg (Oct 12, 7:20 AM)
Low52 °F (Oct 12, 6:50 AM)37% (Oct 12, 12:50 PM)29.71 "Hg (Oct 11, 11:20 PM)
Average66 °F74%30.04 "Hg
* Reported Oct 11 10:20 PM — Oct 26 10:20 PM, Naples, Weather by CustomWeather, © 2016

Note: Actual official high and low records may vary slightly from our data, if they occured in-between our weather recording intervals... More about our weather records


Naples Weather History for the Previous 24 Hours

Scroll right to see more
Time TempWeatherWind HumidityBarometerVisibility
10:20 PM
Wed, Oct 26
70 °FPassing clouds.2 mph83%30.07 "HgN/A
9:50 PM70 °FPassing clouds.5 mph83%30.07 "HgN/A
9:20 PM70 °FPassing clouds.7 mph83%30.07 "HgN/A
8:50 PM70 °FPassing clouds.6 mph83%30.04 "HgN/A
8:20 PM70 °FPassing clouds.5 mph83%30.07 "Hg4 mi
7:50 PM70 °FPassing clouds.7 mph83%30.07 "Hg4 mi
7:20 PM70 °FPassing clouds.3 mph83%30.07 "Hg4 mi
6:50 PM70 °FPassing clouds.3 mph88%30.09 "Hg4 mi
6:20 PM70 °FPassing clouds.1 mph83%30.09 "Hg4 mi
5:50 PM72 °FPartly sunny.3 mph78%30.09 "Hg4 mi
5:20 PM72 °FPartly sunny.2 mph83%30.09 "Hg4 mi
4:50 PM72 °FFog.5 mph78%30.09 "Hg3 mi
4:20 PM72 °FFog.3 mph83%30.12 "Hg3 mi
3:50 PM72 °FFog.2 mph83%30.12 "Hg3 mi
3:20 PM72 °FFog.5 mph83%30.12 "Hg3 mi
2:50 PM72 °FPartly sunny.8 mph78%30.15 "Hg5 mi
2:20 PM73 °FPartly sunny.6 mph78%30.15 "Hg5 mi
1:50 PM73 °FPartly sunny.6 mph78%30.12 "Hg5 mi
1:20 PM73 °FScattered clouds.6 mph74%30.15 "Hg5 mi
12:50 PM73 °FScattered clouds.1 mph78%30.15 "Hg5 mi
12:20 PM73 °FScattered clouds.2 mph74%30.18 "Hg5 mi
11:50 AM72 °FScattered clouds.5 mph78%30.15 "Hg5 mi
11:20 AM72 °FScattered clouds.3 mph78%30.18 "HgN/A
10:50 AM70 °FScattered clouds.5 mph83%30.18 "Hg5 mi
10:20 AM66 °FScattered clouds.3 mph94%30.15 "Hg5 mi
9:50 AM66 °FScattered clouds.5 mph94%30.15 "Hg5 mi
9:20 AM64 °FFog.2 mph88%30.15 "Hg3 mi
8:50 AM64 °FFog.2 mph88%30.18 "Hg3 mi
8:20 AM64 °FScattered clouds.5 mph88%30.18 "Hg4 mi
7:50 AM63 °FFog.3 mph94%30.15 "Hg2 mi
7:20 AM63 °FFog.7 mph88%30.15 "Hg2 mi
6:50 AM63 °FClear.6 mph94%30.15 "Hg4 mi
6:20 AM63 °FClear.2 mph94%30.15 "Hg10 mi
5:50 AM63 °FClear.3 mph94%30.15 "Hg10 mi
5:20 AM63 °FClear.2 mph88%30.15 "Hg10 mi
4:50 AM61 °FClear.3 mph94%30.15 "Hg10 mi
4:20 AM61 °FClear.2 mph94%30.15 "Hg10 mi
3:50 AM63 °FClear.3 mph94%30.15 "Hg10 mi
3:20 AM63 °FPassing clouds.5 mph94%30.18 "HgN/A
2:50 AM63 °FClear.2 mph88%30.18 "Hg10 mi
2:20 AM63 °FClear.5 mph94%30.18 "Hg10 mi
1:50 AM64 °FClear.1 mph94%30.18 "Hg10 mi
1:20 AM63 °FClear.5 mph94%30.18 "Hg10 mi
12:50 AM64 °FClear.2 mph88%30.21 "Hg10 mi
12:20 AM63 °FClear.3 mph94%30.21 "Hg10 mi
11:50 PM
Tue, Oct 25
64 °FClear.No wind88%30.21 "Hg10 mi
11:20 PM66 °FClear.No wind88%30.21 "Hg10 mi
Weather by CustomWeather, © 2016

See weather overviewHow to use our weather pages